Preview of NWS' New Version of Forecast
This preview is not operational and should not be used for support decisions.

Regional Weather Roundup (RWR)

Issued by National Weather Service (NWS)

                            
000
ASUS43 KTOP 241608
RWRKS 

WEATHER ROUNDUP FOR KANSAS
NATIONAL WEATHER SERVICE GOODLAND KS
1100 AM CDT SUN MAR 24 2019

NOTE:  "FAIR" INDICATES FEW OR NO CLOUDS BELOW 12,000 FEET WITH NO
SIGNIFICANT WEATHER AND/OR OBSTRUCTIONS TO VISIBILITY.

KSZ001>006-013>018-027>032-041>047-241700-
NORTHWEST KANSAS
  
CITY           SKY/WX    TMP DP  RH WIND       PRES   REMARKS
GOODLAND       CLOUDY    43  40  89 N9        30.10R                  
HAYS           CLOUDY    48  42  80 N14       30.07R                  
HILL CITY      CLOUDY    47  41  80 N14       30.08R                  
RUSSELL        PTSUNNY   52  44  74 NW16      30.04R                  
$$

KSZ061>065-074>080-084>089-241700-
SOUTHWEST KANSAS
  
CITY           SKY/WX    TMP DP  RH WIND       PRES   REMARKS
DODGE CITY     SUNNY     52  40  63 NW17      30.08R                  
ELKHART        MOSUNNY   56  42  60 N14       30.09F                  
GARDEN CITY    SUNNY     50  41  71 N15       30.09S                  
GREAT BEND     CLOUDY    47  42  83 NW13      30.07R                  
LIBERAL        SUNNY     54  40  59 N20       30.08S                  
PRATT          SUNNY     53  44  70 NW16      30.06R                  
$$

KSZ066>073-081>083-090>101-241700-
SOUTHEAST KANSAS
  
CITY           SKY/WX    TMP DP  RH WIND       PRES   REMARKS
CHANUTE        MOSUNNY   60  50  69 W8        29.99S                  
COFFEYVILLE    CLOUDY    55  53  93 SW5       30.00R FOG              
HUTCHINSON     MOSUNNY   53  44  71 NW16      30.03R                  
MEDICINE LODGE   N/A     56  44  64 NW15G24   30.04R                  
NEWTON         CLOUDY    51  45  79 NW14      30.02R                  
PARSONS        CLOUDY    56  54  93 SW7       30.01R                  
WICHITA INTL   MOSUNNY   55  43  63 NW12      30.02R                  
WICHITA JABRA  SUNNY     54  44  69 NW13      30.02R                  
WICHITA MCCONL SUNNY     53  44  70 W9        30.01R                  
WINFIELD       SUNNY     57  45  64 NW12      30.03R                  
$$

KSZ007>012-019>026-033>040-048>060-102>105-241700-
NORTHEAST KANSAS
  
CITY           SKY/WX    TMP DP  RH WIND       PRES   REMARKS
CONCORDIA      CLOUDY    50  45  83 NW16      29.99R                  
EMPORIA        CLOUDY    50  45  83 W9        29.99S                  
LAWRENCE       CLOUDY    51  44  77 W13       29.98R                  
MANHATTAN      CLOUDY    54  45  71 W7        29.97R                  
MARYSVILLE     CLOUDY    48  45  87 W8        29.96R                  
OLATHE IND     PTSUNNY   56  47  71 W16G23    29.97R                  
OLATHE EXE     PTSUNNY   54  47  77 W14G20    29.96S                  
SALINA         CLOUDY    52  43  71 NW20      30.01R                  
TOPEKA BILLARD CLOUDY    51  43  74 W9        29.96S                  
TOPEKA FORBES  CLOUDY    53  45  74 W13       29.96S                  
$$